Tracking 27126 objects as of 30-Mar-2023
HD Live streaming from Space Station
objects crossing your sky now

STARLINK-4742

Track STARLINK-4742 now!
10-day predictions
STARLINK-4742 is classified as:


NORAD ID: 53795
Int'l Code: 2022-111Y
Perigee: 545.8 km
Apogee: 547.9 km
Inclination: 53.2 °
Period: 95.4 minutes
Semi major axis: 6917 km
RCS: Unknown
Launch date: September 11, 2022
Source: United States (US)
Launch site: AIR FORCE EASTERN TEST RANGE (AFETR)
Your satellite tracking list
Your tracking list is empty




NASA's NSSDC Master Catalog

Two Line Element Set (TLE):
1 53795U 22111Y   23088.63962390  .00002665  00000-0  18545-3 0  9990
2 53795  53.2190  64.3788 0001507  81.1260 278.9903 15.08841880 31249
Source of the keplerian elements: AFSPC